Main page
METAR-TAF:

METAR-TAF

Airports :

Hamilton Municipal Airport

Hamilton, Texas, United States

latitude: 31-39-57N, longitude: 098-08-55W, elevation: 1299 ft

Current weather observation

The report was made 12 minutes ago, at 19:35 UTC
Wind 16 mph from the South/Southeast with gusts up to 22 mph
Temperature 93°F
Humidity 47%
Pressure 29.82 in. Hg
Visibility: 10 miles
Scattered clouds at a height of 4100 ft

METAR: KMNZ 171935Z AUTO 15014G19KT 10SM SCT041 34/21 A2982 RMK AO2 T03360206 TSNO

Time: 13:47 (19:47 UTC)


TAF: missing

Weather observations and forecasts of more than 4000 airports (METAR and TAF reports).

The available stations are represented by yellow and red dots on the map.

Hover mouse over dot to see the name of the station.

Then click to see weather observations and forecasts.

To change the map : click on the green buttons with a black cross to zoom in, on the green button with a dash to zoom out, or on the green arrows for adjacent maps.


METAR-TAF: